This is the latest recevied weather packets stored in our database for station/object AE5HO. If no packets are shown the sender has not sent any weather packets the latest 10 day(s).
| Time | Temp. | Humidity | Pressure | Rain* | Wind** | Luminosity | Snow |
|---|---|---|---|---|---|---|---|
| 1787976206 | 30° C | 55% | 1016.6 hPa | 0 mm | - | 0 W/m² | - |
| 1787975905 | 30° C | 53% | 1016.8 hPa | 0 mm | - | 0 W/m² | - |
| 1787975604 | 30° C | 53% | 1016.6 hPa | 0 mm | - | 0 W/m² | - |
| 1787975304 | 30° C | 52% | 1016.7 hPa | 0 mm | - | 0 W/m² | - |
| 1787975002 | 30.56° C | 52% | 1016.5 hPa | 0 mm | - | 0 W/m² | - |
| 1787974702 | 30.56° C | 52% | 1016.5 hPa | 0 mm | - | 0 W/m² | - |
| 1787974396 | 30.56° C | 52% | 1016.5 hPa | 0 mm | - | 0 W/m² | - |
| 1787974095 | 30.56° C | 52% | 1016.5 hPa | 0 mm | - | 0 W/m² | - |
| 1787973790 | 30.56° C | 51% | 1016.6 hPa | 0 mm | - | 0 W/m² | - |
| 1787973486 | 30.56° C | 53% | 1016.4 hPa | 0 mm | - | 0 W/m² | - |
| 1787973181 | 30.56° C | 51% | 1016.2 hPa | 0 mm | - | 0 W/m² | - |
| 1787972879 | 31.11° C | 50% | 1016.3 hPa | 0 mm | - | 0 W/m² | - |
| 1787972575 | 31.11° C | 50% | 1016.1 hPa | 0 mm | - | 0 W/m² | - |
| 1787972274 | 31.11° C | 50% | 1016.1 hPa | 0 mm | - | 0 W/m² | - |
| 1787971969 | 31.11° C | 49% | 1016.1 hPa | 0 mm | - | 0 W/m² | - |
| 1787971664 | 31.67° C | 48% | 1015.9 hPa | 0 mm | - | 0 W/m² | - |
| 1787971360 | 31.67° C | 49% | 1015.8 hPa | 0 mm | - | 0 W/m² | - |
| 1787971056 | 31.67° C | 50% | 1015.9 hPa | 0 mm | - | 0 W/m² | - |
| 1787970754 | 32.22° C | 47% | 1016 hPa | 0 mm | - | 0 W/m² | - |
| 1787970454 | 32.22° C | 47% | 1015.9 hPa | 0 mm | - | 0 W/m² | - |
| 1787970154 | 32.78° C | 46% | 1015.8 hPa | 0 mm | - | 0 W/m² | - |
| 1787969853 | 32.78° C | 46% | 1015.8 hPa | 0 mm | - | 0 W/m² | - |
| 1787969553 | 33.33° C | 45% | 1015.8 hPa | 0 mm | - | 0 W/m² | - |
| 1787969252 | 33.33° C | 44% | 1015.7 hPa | 0 mm | - | 0 W/m² | - |
| 1787968952 | 33.33° C | 43% | 1015.6 hPa | 0 mm | - | 0 W/m² | - |
* Rain latest hour (hover to see other rain measurements)
** Current wind speed in m/s (hover to see current wind gust speed)